"startDT [UTC]","vpos","CH4 [ppm]","stdev(CH4) [ppm]","CO2 [ppm]","stdev(CO2) [ppm]","H2O_reported [%]","stdev(H2O_reported)","CavityPressure [torr]","CavityTemp [C]","OutletValve","CH4_dry [ppm]","CO2_dry [ppm]","DasTemp [C]","EtalonTemp [C]","WarmBoxTemp [C]","MPVPosition","T_ECpre [C]","T_EC1 [C]","T_EC2 [C]","p_inlet [hPa]","p_in [hPa]","p_out [hPa]","T_inlet [C]","RH_inlet [%]","dwpt_inlet [C]","T_vent [C]","RH_vent [%]","dwpt_vent [C]","flow_vent [l min-1]","flow_inlet [l min-1]","dwpt_sample [C]","T_room [C]"
2015-06-22 00:25:00,0.0,,,,,,,,,,,,,,,,,,0.11,-272.67,-272.75,2,1005,7,16.0,29.2,-2.0,16.0,33.5,-0.1,5.73,1.71,-2.7,14.9
2015-06-22 00:26:00,0.0,,,,,,,,,,,,,,,,,,0.11,-272.70,-272.75,3,1008,7,16.1,27.0,-3.0,16.1,28.2,-2.3,5.73,2.38,-2.7,15.1
2015-06-22 00:27:00,0.0,,,,,,,,,,,,,,,,,,0.11,-272.72,-272.76,-0,1008,7,16.1,26.4,-3.1,16.1,27.1,-2.8,5.73,1.73,-2.7,15.4
2015-06-22 00:28:00,0.0,,,,,,,,,,,,,,,,,,0.11,-272.72,-272.77,-1,1008,7,16.2,26.5,-3.1,16.2,27.0,-2.8,5.73,1.63,-2.7,15.8
2015-06-22 00:29:00,0.0,,,,,,,,,,,,,,,,,,0.11,-272.73,-272.77,-1,1009,7,16.3,26.2,-3.2,16.3,26.8,-2.9,5.73,2.16,-1.8,16.2
2015-06-22 00:30:00,0.0,,,,,,,,,,,,,,,,,,0.11,-272.73,-272.79,2,1010,7,16.3,26.5,-3.0,16.3,26.9,-2.8,5.73,2.29,-1.4,16.6
2015-06-22 00:31:00,0.0,,,,,,,,,,,,,,,,,,0.11,-272.73,-272.79,3,1007,7,16.4,26.6,-2.9,16.3,27.1,-2.6,5.73,1.55,-1.5,16.9
2015-06-22 00:32:00,0.0,,,,,,,,,,,,,,,,,,0.11,-272.73,-272.79,1,1009,7,16.4,26.9,-2.7,16.4,27.4,-2.5,5.73,2.20,-1.6,17.3
2015-06-22 00:33:00,0.0,,,,,,,,,,,,,,,,,,0.11,-272.73,-272.79,2,1008,7,16.5,26.8,-2.7,16.4,27.4,-2.4,5.73,1.88,-1.7,17.6
2015-06-22 00:34:00,0.0,,,,,,,,,,,,,,,,,,0.11,-272.73,-272.80,2,1009,7,16.5,26.5,-2.8,16.5,27.1,-2.5,5.73,1.78,-1.7,18.0
2015-06-22 00:35:00,0.0,,,,,,,,,,,,,,,,,,0.11,-272.74,-272.80,1,1009,6,16.5,26.1,-3.0,16.5,26.6,-2.8,5.73,1.92,-1.8,18.3
2015-06-22 00:36:00,0.0,,,,,,,,,,,,,,,,,,0.11,-272.73,-272.79,1,1009,6,16.6,26.0,-3.0,16.5,26.7,-2.7,5.73,1.96,-1.8,18.6
2015-06-22 00:37:00,0.0,,,,,,,,,,,,,,,,,,0.11,-272.73,-272.80,1,1008,6,16.6,26.0,-2.9,16.6,26.5,-2.8,5.73,1.93,-1.8,18.9
2015-06-22 00:38:00,0.0,,,,,,,,,,,,,,,,,,0.11,-272.75,-272.79,1,1008,6,16.7,26.3,-2.8,16.6,26.8,-2.6,5.73,1.92,-1.9,19.1
2015-06-22 00:39:00,0.0,,,,,,,,,,,,,,,,,,0.10,-272.73,-272.81,2,1008,6,16.7,26.4,-2.7,16.7,27.1,-2.4,5.73,1.99,-1.9,19.4
2015-06-22 00:40:00,0.0,,,,,,,,,,,,,,,,,,0.11,-272.74,-272.80,2,1008,6,16.8,25.6,-3.0,16.7,26.4,-2.7,5.73,1.95,-1.9,19.6
2015-06-22 00:41:00,0.0,,,,,,,,,,,,,,,,,,0.10,-272.75,-272.80,2,1008,6,16.8,25.7,-3.0,16.7,26.2,-2.8,5.73,1.92,-1.9,19.8
2015-06-22 00:42:00,0.0,,,,,,,,,,,,,,,,,,0.10,-272.74,-272.80,1,1008,6,16.9,25.4,-3.1,16.7,26.1,-2.8,5.73,1.89,-1.9,20.1
2015-06-22 00:43:00,0.0,,,,,,,,,,,,,,,,,,0.10,-272.75,-272.80,1,1008,6,16.9,25.6,-3.0,16.7,26.1,-2.8,5.73,1.94,-1.9,20.3
2015-06-22 00:44:00,0.0,,,,,,,,,,,,,,,,,,0.10,-272.75,-272.80,2,1008,6,17.0,25.8,-2.8,16.8,26.5,-2.6,5.73,2.03,-1.9,20.5
2015-06-22 00:45:00,0.0,,,,,,,,,,,,,,,,,,0.10,-272.74,-272.81,2,1007,6,17.0,25.7,-2.8,16.9,26.5,-2.5,5.73,1.99,-2.0,20.7
2015-06-22 00:46:00,0.0,,,,,,,,,,,,,,,,,,0.10,-272.73,-272.80,2,999,5,17.1,25.5,-2.8,16.9,26.2,-2.6,5.73,1.81,-2.0,20.9
2015-06-22 00:47:00,0.0,,,,,,,,,,,,,,,,,,0.10,-272.74,-272.81,0,976,5,17.1,25.4,-2.8,16.9,26.3,-2.5,5.73,2.06,-1.9,21.1
2015-06-22 00:48:00,0.0,,,,,,,,,,,,,,,,,,0.10,-272.74,-272.81,2,976,5,17.2,25.0,-3.0,17.0,25.9,-2.7,5.73,1.89,-2.0,21.3
2015-06-22 00:49:00,0.0,,,,,,,,,,,,,,,,,,0.10,-272.74,-272.81,1,976,5,17.3,25.0,-3.0,17.1,25.9,-2.7,5.73,2.05,-1.9,21.4
2015-06-22 00:50:00,0.0,,,,,,,,,,,,,,,,,,0.10,-272.74,-272.80,2,977,5,17.3,25.0,-2.9,17.1,25.9,-2.6,5.73,1.85,-1.9,21.6
2015-06-22 00:51:00,0.0,,,,,,,,,,,,,,,,,,0.10,-272.74,-272.81,0,976,5,17.4,25.1,-2.8,17.1,26.1,-2.5,5.73,2.08,-1.9,21.8
2015-06-22 00:52:00,0.0,,,,,,,,,,,,,,,,,,0.10,-272.75,-272.81,2,976,5,17.4,24.9,-2.9,17.2,25.9,-2.5,5.73,1.89,-1.9,21.9
2015-06-22 00:53:00,0.0,,,,,,,,,,,,,,,,,,0.10,-272.74,-272.81,1,977,5,17.5,24.9,-2.8,17.3,25.8,-2.5,5.73,1.92,-1.9,22.1
2015-06-22 00:54:00,0.0,1.88776,0.00065,399.873,0.170,0.6433,0.0031,140.008,44.837,33881.84918,1.90509,403.016,29.378,45.077,45.046,0.00,0.10,-272.74,-272.80,1,976,5,17.6,24.9,-2.7,17.3,25.9,-2.4,5.73,2.06,-1.9,22.2
2015-06-22 00:55:00,0.0,1.88742,0.00066,399.965,0.173,0.6420,0.0027,140.008,44.892,33977.84415,1.89961,403.127,29.632,45.113,45.066,0.00,0.10,-272.74,-272.80,2,976,5,17.6,24.6,-2.8,17.4,25.7,-2.5,5.73,1.95,-1.9,22.3
2015-06-22 00:56:00,0.0,1.88697,0.00048,399.871,0.089,0.6447,0.0037,140.005,44.923,34066.52079,1.89915,403.037,29.964,45.130,45.070,0.00,0.10,-272.74,-272.80,1,976,5,17.8,24.6,-2.7,17.4,25.6,-2.5,5.73,1.88,-1.8,22.5
2015-06-22 00:57:00,0.0,1.88723,0.00040,399.756,0.082,0.6482,0.0043,140.004,44.929,34129.90979,1.89947,402.935,30.266,45.128,45.061,0.00,0.10,-272.74,-272.80,1,976,5,17.8,24.6,-2.7,17.5,25.5,-2.5,5.73,1.96,-1.8,22.6
2015-06-22 00:58:00,0.0,1.88801,0.00034,399.742,0.072,0.6447,0.0026,140.004,44.923,34171.07993,1.90025,402.904,30.545,45.116,45.046,0.00,0.10,-272.75,-272.81,1,976,4,17.9,24.3,-2.8,17.5,25.4,-2.5,5.73,2.02,-1.8,22.7
2015-06-22 00:59:00,0.0,1.88840,0.00042,399.650,0.076,0.6515,0.0052,140.003,44.917,34195.23606,1.90069,402.846,30.804,45.102,45.030,0.00,0.10,-272.74,-272.81,1,976,4,17.9,24.4,-2.7,17.6,25.4,-2.5,5.73,2.01,-1.8,22.9
2015-06-22 01:00:00,3.0,1.87289,0.00540,398.098,0.793,0.1470,0.2035,139.790,44.916,31263.85622,1.87704,399.017,31.036,45.088,45.017,0.00,0.10,-272.73,-272.80,1,498,4,18.0,24.4,-2.7,17.7,25.4,-2.4,5.73,1.97,-1.8,23.0
2015-06-22 01:01:00,3.0,1.87422,0.00047,396.896,0.090,0.0346,0.0024,139.998,44.918,31158.15247,1.87481,397.067,31.248,45.077,45.007,0.00,0.10,-272.74,-272.81,1,498,4,18.1,24.1,-2.8,17.7,25.0,-2.5,5.73,1.89,-1.8,23.1
2015-06-22 01:02:00,3.0,1.87471,0.00014,397.153,0.132,0.0309,0.0020,139.996,44.924,31108.43256,1.87529,397.289,31.429,45.069,45.000,0.00,0.10,-272.74,-272.81,2,498,4,18.2,24.0,-2.7,17.8,25.0,-2.5,5.73,1.90,-1.8,23.2
2015-06-22 01:03:00,3.0,1.87446,0.00023,397.408,0.039,0.0280,0.0022,139.999,44.934,31070.41832,1.87497,397.541,31.555,45.063,44.996,0.00,0.10,-272.73,-272.79,2,498,4,18.2,24.2,-2.6,17.9,25.0,-2.4,5.73,1.93,-1.8,23.3
2015-06-22 01:04:00,3.0,1.87442,0.00026,397.466,0.032,0.0223,0.0026,139.999,44.944,31039.30469,1.87483,397.572,31.698,45.061,44.994,0.00,0.10,-272.74,-272.80,2,498,4,18.3,24.0,-2.6,17.9,25.0,-2.4,5.73,1.95,-1.7,23.4
2015-06-22 01:05:00,3.0,1.87455,0.00033,397.497,0.032,0.0178,0.0019,140.001,44.956,31016.06039,1.87488,397.584,31.864,45.060,44.994,0.00,0.10,-272.74,-272.81,1,498,4,18.4,23.7,-2.7,18.0,24.7,-2.5,5.73,1.95,-1.7,23.5
2015-06-22 01:06:00,3.0,1.87453,0.00029,397.491,0.028,0.0154,0.0018,140.002,44.966,30995.80096,1.87481,397.565,32.012,45.060,44.994,0.00,0.10,-272.74,-272.80,1,498,4,18.5,23.7,-2.7,18.1,24.7,-2.4,5.73,1.95,-1.7,23.7
2015-06-22 01:07:00,3.0,1.87453,0.00028,397.495,0.026,0.0113,0.0018,140.000,44.975,30980.06225,1.87474,397.549,32.157,45.060,44.995,0.00,0.10,-272.73,-272.80,2,498,4,18.6,23.2,-2.9,18.2,24.2,-2.6,5.73,1.95,-1.7,23.8
2015-06-22 01:08:00,3.0,1.87456,0.00034,397.461,0.019,0.0105,0.0021,139.998,44.982,30967.89786,1.87474,397.512,32.304,45.061,44.996,0.00,0.10,-272.74,-272.80,2,498,4,18.7,23.4,-2.7,18.2,24.3,-2.5,5.73,1.93,-1.7,23.9
2015-06-22 01:09:00,3.0,1.87467,0.00039,397.483,0.035,0.0078,0.0013,140.002,44.987,30956.51377,1.87481,397.522,32.436,45.062,44.997,0.00,0.10,-272.74,-272.80,2,498,3,18.7,23.6,-2.5,18.4,24.6,-2.3,5.73,1.93,-1.7,24.0
2015-06-22 01:10:00,3.0,1.87465,0.00036,397.484,0.019,0.0076,0.0019,139.998,44.990,30949.12992,1.87481,397.518,32.536,45.063,44.998,0.00,0.10,-272.73,-272.79,2,498,3,18.8,23.5,-2.5,18.4,24.6,-2.2,5.73,1.92,-1.6,24.1
2015-06-22 01:11:00,3.0,1.87484,0.00035,397.496,0.032,0.0074,0.0022,140.000,44.993,30941.76208,1.87498,397.531,32.664,45.064,44.999,0.00,0.10,-272.74,-272.80,1,498,3,18.9,23.4,-2.4,18.5,24.4,-2.2,5.73,1.92,-1.6,24.2
2015-06-22 01:12:00,3.0,1.87470,0.00036,397.497,0.022,0.0057,0.0029,139.998,44.994,30935.83016,1.87480,397.525,32.765,45.065,44.999,0.00,0.10,-272.74,-272.80,1,498,3,19.0,23.2,-2.5,18.6,24.3,-2.2,5.73,1.92,-1.6,24.3
2015-06-22 01:13:00,3.0,1.87446,0.00034,397.506,0.027,0.0048,0.0029,139.999,44.996,30931.96204,1.87456,397.530,32.876,45.065,45.000,0.00,0.10,-272.73,-272.80,1,498,3,19.1,23.1,-2.4,18.7,24.1,-2.2,5.73,1.92,-1.6,24.4
2015-06-22 01:14:00,3.0,1.87439,0.00044,397.502,0.032,0.0053,0.0020,139.999,44.997,30928.02946,1.87449,397.527,32.974,45.066,45.000,0.00,0.10,-272.73,-272.80,1,498,3,19.2,23.1,-2.3,18.8,24.2,-2.1,5.73,1.93,-1.6,24.6
2015-06-22 01:15:00,3.0,1.87437,0.00028,397.500,0.021,0.0037,0.0012,140.000,44.998,30925.88112,1.87444,397.518,33.076,45.066,45.000,0.00,0.10,-272.74,-272.81,2,498,3,19.3,23.1,-2.3,18.9,24.2,-2.1,5.73,1.96,-1.6,24.7
2015-06-22 01:16:00,3.0,1.87479,0.00049,397.522,0.028,0.0038,0.0019,140.003,44.998,30921.92434,1.87485,397.539,33.163,45.066,45.000,0.00,0.10,-272.73,-272.80,2,499,3,19.4,22.9,-2.3,19.0,24.0,-2.1,5.73,1.97,-1.5,24.8
2015-06-22 01:17:00,3.0,1.87460,0.00035,397.490,0.041,0.0039,0.0020,140.001,44.999,30921.75126,1.87464,397.510,33.280,45.066,45.000,0.00,0.10,-272.73,-272.80,1,499,3,19.5,22.7,-2.3,19.1,23.8,-2.1,5.73,1.96,-1.5,24.9
2015-06-22 01:18:00,3.0,1.87485,0.00039,397.492,0.038,0.0054,0.0021,140.002,45.000,30921.62593,1.87496,397.517,33.373,45.066,45.000,0.00,0.10,-272.74,-272.79,1,499,3,19.6,23.0,-2.1,19.2,24.0,-1.9,5.73,1.91,-1.5,25.0
2015-06-22 01:19:00,3.0,1.87463,0.00046,397.493,0.028,0.0028,0.0017,139.997,45.000,30919.08361,1.87471,397.507,33.458,45.066,45.000,0.00,0.10,-272.74,-272.79,1,499,2,19.7,23.3,-1.9,19.2,24.3,-1.7,5.73,1.87,-1.5,25.1
2015-06-22 01:20:00,3.0,1.87481,0.00035,397.500,0.026,0.0020,0.0022,139.999,45.001,30919.79665,1.87484,397.511,33.547,45.066,45.000,0.00,0.10,-272.74,-272.80,1,499,2,19.8,22.7,-2.1,19.3,23.9,-1.8,5.73,1.88,-1.5,25.2
2015-06-22 01:21:00,3.0,1.87506,0.00032,397.508,0.026,0.0037,0.0023,140.002,45.001,30920.76464,1.87512,397.524,33.634,45.066,45.000,0.00,0.10,-272.74,-272.80,1,498,2,19.9,22.6,-2.1,19.4,23.5,-1.9,5.73,1.96,-1.4,25.3
2015-06-22 01:22:00,3.0,1.87488,0.00027,397.533,0.028,0.0035,0.0022,140.002,45.001,30921.53103,1.87494,397.548,33.716,45.066,45.000,0.00,0.10,-272.74,-272.80,1,498,2,20.0,22.9,-1.9,19.5,23.8,-1.7,5.73,1.98,-1.4,25.4
2015-06-22 01:23:00,3.0,1.87506,0.00036,397.526,0.024,0.0033,0.0016,140.000,45.001,30920.35066,1.87513,397.542,33.791,45.066,45.000,0.00,0.10,-272.73,-272.79,2,498,2,20.0,23.0,-1.7,19.6,24.1,-1.5,5.73,1.91,-1.4,25.5
2015-06-22 01:24:00,3.0,1.87492,0.00026,397.512,0.026,0.0027,0.0024,140.000,45.001,30921.57693,1.87497,397.527,33.867,45.066,45.000,0.00,0.10,-272.73,-272.79,2,498,2,20.1,22.4,-2.0,19.7,23.6,-1.7,5.73,1.84,-1.4,25.6
2015-06-22 01:25:00,2.0,1.84942,0.01047,390.692,2.869,0.0328,0.0466,140.037,45.001,31496.75007,1.85172,391.073,33.947,45.066,45.001,0.00,0.10,-272.74,-272.80,1,583,2,20.2,22.2,-2.1,19.8,23.2,-1.8,5.73,1.92,-1.4,25.7
2015-06-22 01:26:00,2.0,1.84509,0.00034,389.518,0.027,0.0175,0.0023,140.003,45.001,31527.62737,1.84539,389.598,34.024,45.066,45.001,0.00,0.10,-272.74,-272.79,0,585,2,20.3,22.1,-2.0,19.9,23.1,-1.8,5.73,1.98,-1.4,25.8
2015-06-22 01:27:00,2.0,1.84488,0.00034,389.529,0.026,0.0169,0.0015,140.001,45.001,31544.18050,1.84522,389.607,34.099,45.066,45.001,0.00,0.10,-272.72,-272.79,1,585,2,20.4,21.9,-2.1,19.9,23.1,-1.8,5.73,1.91,-1.3,25.9
2015-06-22 01:28:00,2.0,1.84498,0.00027,389.507,0.031,0.0135,0.0027,139.996,45.001,31553.62530,1.84522,389.573,34.156,45.066,45.001,0.00,0.10,-272.73,-272.80,1,585,1,20.5,21.5,-2.3,20.0,22.5,-2.0,5.73,1.82,-1.3,26.0
2015-06-22 01:29:00,2.0,1.84482,0.00037,389.514,0.039,0.0117,0.0027,140.001,45.001,31565.01140,1.84503,389.567,34.222,45.067,45.001,0.00,0.10,-272.73,-272.80,1,585,1,20.6,21.4,-2.3,20.1,22.4,-2.1,5.73,1.94,-1.3,26.1
2015-06-22 01:30:00,2.0,1.84503,0.00051,389.546,0.028,0.0079,0.0019,140.003,45.001,31574.34583,1.84516,389.584,34.286,45.066,45.001,0.00,0.10,-272.73,-272.80,1,585,1,20.7,21.4,-2.2,20.2,22.4,-2.0,5.73,1.96,-1.3,26.1
2015-06-22 01:31:00,2.0,1.84510,0.00034,389.537,0.037,0.0061,0.0019,140.003,45.001,31582.82311,1.84522,389.566,34.352,45.066,45.001,0.00,0.10,-272.73,-272.79,1,585,1,20.7,21.4,-2.1,20.2,22.4,-1.9,5.73,1.83,-1.2,26.2
2015-06-22 01:32:00,2.0,1.84535,0.00042,389.529,0.028,0.0052,0.0023,139.999,45.001,31587.15145,1.84537,389.552,34.420,45.066,45.001,0.00,0.10,-272.74,-272.80,1,585,1,20.8,21.2,-2.2,20.3,22.2,-2.0,5.73,1.90,-1.2,26.3
2015-06-22 01:33:00,2.0,1.84570,0.00029,389.566,0.033,0.0032,0.0009,139.999,45.001,31591.20444,1.84580,389.581,34.478,45.066,45.001,0.00,0.10,-272.74,-272.80,2,586,1,20.8,21.0,-2.3,20.4,22.0,-2.1,5.73,1.97,-1.2,26.4
2015-06-22 01:34:00,2.0,1.84587,0.00033,389.584,0.037,0.0029,0.0024,140.002,45.001,31596.17926,1.84592,389.598,34.521,45.066,45.001,0.00,0.10,-272.73,-272.79,1,586,1,20.9,21.1,-2.2,20.4,22.0,-2.0,5.73,1.82,-1.2,26.5
2015-06-22 01:35:00,2.0,1.84560,0.00041,389.564,0.022,0.0026,0.0016,140.000,45.001,31601.29135,1.84561,389.575,34.587,45.066,45.001,0.00,0.10,-272.74,-272.80,1,585,1,21.0,21.1,-2.1,20.6,22.0,-1.9,5.73,1.91,-1.1,26.5
2015-06-22 01:36:00,2.0,1.84581,0.00042,389.558,0.030,0.0027,0.0010,140.004,45.001,31604.99400,1.84588,389.572,34.652,45.066,45.001,0.00,0.10,-272.73,-272.80,2,585,1,21.1,21.0,-2.1,20.6,22.0,-1.9,5.73,1.95,-1.1,26.6
2015-06-22 01:37:00,2.0,1.84539,0.00027,389.581,0.026,0.0014,0.0018,140.000,45.001,31607.52197,1.84543,389.587,34.706,45.067,45.001,0.00,0.10,-272.73,-272.79,1,585,1,21.1,21.0,-2.1,20.7,21.9,-1.9,5.73,1.79,-1.1,26.7
2015-06-22 01:38:00,2.0,1.84551,0.00023,389.575,0.032,0.0021,0.0019,139.999,45.001,31611.79954,1.84555,389.586,34.755,45.066,45.001,0.00,0.10,-272.73,-272.79,0,585,0,21.2,20.5,-2.3,20.7,21.6,-2.0,5.73,1.97,-1.1,26.7
2015-06-22 01:39:00,2.0,1.84547,0.00036,389.559,0.033,0.0015,0.0014,140.000,45.001,31613.99197,1.84551,389.566,34.808,45.066,45.001,0.00,0.10,-272.72,-272.79,1,585,0,21.3,19.9,-2.6,20.8,20.9,-2.3,5.73,1.85,-1.1,26.8
2015-06-22 01:40:00,2.0,1.84566,0.00031,389.569,0.021,0.0012,0.0011,140.000,45.001,31617.78126,1.84566,389.573,34.861,45.066,45.001,0.00,0.10,-272.72,-272.79,1,585,0,21.4,20.1,-2.4,20.9,21.0,-2.2,5.73,1.86,-1.1,26.9
2015-06-22 01:41:00,2.0,1.84552,0.00046,389.611,0.031,0.0012,0.0022,139.996,45.001,31618.32162,1.84554,389.616,34.912,45.066,45.001,0.00,0.10,-272.73,-272.79,1,585,0,21.4,20.2,-2.4,21.0,21.1,-2.1,5.73,1.94,-1.1,26.9
2015-06-22 01:42:00,2.0,1.84579,0.00028,389.594,0.026,0.0015,0.0022,140.001,45.001,31621.14478,1.84579,389.601,34.966,45.066,45.000,0.00,0.10,-272.73,-272.80,1,585,-0,21.5,20.1,-2.4,21.1,21.0,-2.1,5.73,1.78,-1.0,27.0
2015-06-22 01:43:00,2.0,1.84574,0.00037,389.585,0.032,0.0016,0.0018,140.004,45.001,31624.97150,1.84581,389.595,35.015,45.066,45.000,0.00,0.10,-272.72,-272.79,0,585,-0,21.6,20.2,-2.2,21.1,21.0,-2.0,5.73,1.98,-1.0,27.1
2015-06-22 01:44:00,2.0,1.84581,0.00037,389.587,0.038,0.0024,0.0017,139.999,45.001,31624.37066,1.84585,389.596,35.064,45.066,45.000,0.00,0.10,-272.72,-272.79,1,585,-0,21.6,20.1,-2.2,21.2,21.0,-2.0,5.73,1.77,-1.0,27.1
2015-06-22 01:45:00,2.0,1.84566,0.00032,389.602,0.026,0.0015,0.0020,140.000,45.001,31626.82417,1.84568,389.608,35.108,45.066,45.000,0.00,0.10,-272.73,-272.80,1,585,-0,21.7,19.7,-2.4,21.3,20.6,-2.2,5.73,1.96,-1.0,27.2
2015-06-22 01:46:00,2.0,1.84573,0.00041,389.594,0.015,0.0006,0.0017,140.000,45.001,31628.57506,1.84576,389.598,35.142,45.066,45.000,0.00,0.10,-272.73,-272.79,1,585,-0,21.8,19.6,-2.5,21.3,20.4,-2.3,5.73,1.81,-0.9,27.3
2015-06-22 01:47:00,2.0,1.84552,0.00041,389.587,0.042,0.0008,0.0020,140.000,45.001,31629.47441,1.84556,389.590,35.188,45.066,45.000,0.00,0.10,-272.73,-272.78,1,585,-1,21.8,19.9,-2.2,21.4,20.6,-2.1,5.73,1.92,-0.9,27.3
2015-06-22 01:48:00,2.0,1.84583,0.00035,389.599,0.020,0.0017,0.0019,140.001,45.001,31631.89890,1.84581,389.606,35.230,45.066,45.000,0.00,0.10,-272.73,-272.79,0,585,-1,21.9,20.0,-2.1,21.4,20.8,-1.9,5.73,1.84,-0.9,27.4
2015-06-22 01:49:00,2.0,1.84591,0.00030,389.587,0.029,0.0011,0.0013,140.001,45.001,31633.39435,1.84594,389.594,35.296,45.066,45.000,0.00,0.10,-272.74,-272.79,1,585,-1,21.9,19.7,-2.3,21.5,20.5,-2.1,5.73,1.89,-0.9,27.5
2015-06-22 01:50:00,4.0,1.77471,0.02691,370.719,7.063,0.0037,0.0033,139.984,45.001,31277.68791,1.77935,371.346,35.329,45.066,45.000,0.00,0.10,-272.72,-272.79,1,519,-1,22.0,19.4,-2.4,21.6,20.2,-2.2,5.73,1.81,-0.9,27.5
2015-06-22 01:51:00,4.0,1.76346,0.00030,367.702,0.032,0.0015,0.0012,140.002,45.001,31276.84421,1.76346,367.704,35.375,45.066,45.000,0.00,0.10,-272.73,-272.79,2,519,-1,22.0,19.4,-2.4,21.6,20.1,-2.2,5.73,1.86,-0.8,27.6
2015-06-22 01:52:00,4.0,1.76330,0.00024,367.724,0.027,0.0017,0.0021,139.997,45.001,31267.18058,1.76336,367.731,35.419,45.066,45.000,0.00,0.10,-272.73,-272.79,2,520,-1,22.0,19.5,-2.3,21.7,20.2,-2.1,5.73,1.85,-0.8,27.6
2015-06-22 01:53:00,4.0,1.76328,0.00036,367.735,0.034,0.0016,0.0012,140.000,45.001,31259.00053,1.76331,367.742,35.458,45.066,45.000,0.00,0.10,-272.73,-272.79,1,518,-1,22.1,19.5,-2.2,21.7,20.2,-2.1,5.73,1.87,-0.8,27.7
2015-06-22 01:54:00,4.0,1.76318,0.00035,367.714,0.025,0.0028,0.0019,140.000,45.001,31254.25679,1.76323,367.726,35.498,45.066,45.000,0.00,0.10,-272.72,-272.78,4,518,-2,22.2,19.9,-1.9,21.8,20.5,-1.8,5.73,1.83,-0.8,27.7
2015-06-22 01:55:00,4.0,1.76311,0.00026,367.672,0.031,0.0034,0.0020,140.004,45.001,31251.10860,1.76315,367.687,35.542,45.066,45.000,0.00,0.10,-272.73,-272.79,1,518,-1,22.3,20.1,-1.7,21.9,20.7,-1.6,5.73,1.86,-0.8,27.8
2015-06-22 01:56:00,4.0,1.76350,0.00033,367.691,0.022,0.0029,0.0013,140.000,45.001,31246.99811,1.76356,367.704,35.567,45.066,45.000,0.00,0.10,-272.73,-272.80,2,517,-2,22.2,20.1,-1.7,21.9,20.8,-1.5,5.73,1.81,-0.7,27.9
2015-06-22 01:57:00,4.0,1.76339,0.00038,367.685,0.014,0.0014,0.0013,139.998,45.001,31242.02592,1.76346,367.692,35.605,45.066,45.000,0.00,0.10,-272.72,-272.79,1,517,-2,22.3,19.6,-2.0,22.0,20.3,-1.8,5.73,1.89,-0.7,27.9
2015-06-22 01:58:00,4.0,1.76343,0.00036,367.678,0.016,0.0015,0.0026,140.000,45.001,31241.26858,1.76339,367.684,35.632,45.066,45.000,0.00,0.10,-272.72,-272.79,2,517,-2,22.3,19.4,-2.1,22.0,20.1,-1.9,5.73,1.76,-0.7,27.9
2015-06-22 01:59:00,4.0,1.76331,0.00030,367.679,0.027,0.0019,0.0019,140.002,45.001,31239.46809,1.76334,367.686,35.683,45.066,45.000,0.00,0.10,-272.73,-272.80,1,517,-2,22.4,19.1,-2.3,22.1,19.8,-2.1,5.73,1.92,-0.7,28.0
2015-06-22 02:00:00,4.0,1.76357,0.00028,367.714,0.030,0.0012,0.0018,140.003,45.001,31235.69960,1.76359,367.719,35.695,45.066,45.000,0.00,0.10,-272.72,-272.79,2,517,-2,22.4,19.1,-2.3,22.1,19.7,-2.1,5.73,1.75,-0.6,28.1
2015-06-22 02:01:00,4.0,1.76358,0.00035,367.667,0.026,0.0009,0.0013,140.004,45.001,31237.18391,1.76361,367.673,35.742,45.066,45.000,0.00,0.10,-272.73,-272.79,2,517,-2,22.5,19.1,-2.2,22.1,19.7,-2.1,5.73,1.93,-0.6,28.1
2015-06-22 02:02:00,4.0,1.76346,0.00036,367.689,0.028,0.0004,0.0017,139.997,45.001,31235.02454,1.76347,367.689,35.768,45.066,45.000,0.00,0.10,-272.73,-272.79,2,516,-2,22.5,19.5,-2.0,22.2,19.9,-1.9,5.73,1.75,-0.6,28.1
2015-06-22 02:03:00,4.0,1.76330,0.00035,367.672,0.026,0.0009,0.0020,139.999,45.001,31235.45667,1.76330,367.678,35.812,45.066,45.000,0.00,0.10,-272.73,-272.79,2,516,-2,22.5,19.4,-1.9,22.3,19.9,-1.8,5.73,1.85,-0.6,28.2
2015-06-22 02:04:00,4.0,1.76339,0.00032,367.691,0.030,0.0010,0.0021,140.000,45.001,31235.96659,1.76341,367.693,35.851,45.066,45.000,0.00,0.10,-272.72,-272.78,2,516,-2,22.6,19.4,-1.9,22.3,20.0,-1.8,5.73,1.83,-0.5,28.2
2015-06-22 02:05:00,4.0,1.76320,0.00035,367.694,0.028,0.0020,0.0024,140.003,45.001,31236.99363,1.76326,367.702,35.877,45.066,45.000,0.00,0.10,-272.72,-272.79,1,516,-2,22.6,19.0,-2.2,22.3,19.6,-2.0,5.73,1.74,-0.5,28.2
2015-06-22 02:06:00,4.0,1.76341,0.00029,367.673,0.029,0.0014,0.0019,140.002,45.001,31236.31149,1.76340,367.681,35.921,45.066,45.000,0.00,0.10,-272.73,-272.79,2,516,-2,22.6,19.0,-2.2,22.4,19.4,-2.1,5.73,1.91,-0.5,28.3
2015-06-22 02:07:00,4.0,1.76319,0.00032,367.682,0.040,0.0004,0.0027,140.000,45.001,31237.91338,1.76322,367.685,35.939,45.066,45.000,0.00,0.10,-272.72,-272.78,2,516,-3,22.6,18.9,-2.2,22.4,19.4,-2.1,5.73,1.73,-0.5,28.3
2015-06-22 02:08:00,4.0,1.76314,0.00024,367.660,0.027,0.0005,0.0022,139.997,45.001,31236.96366,1.76316,367.661,35.951,45.066,45.000,0.00,0.10,-272.72,-272.78,2,516,-3,22.7,19.0,-2.1,22.4,19.4,-2.0,5.73,1.83,-0.5,28.4
2015-06-22 02:09:00,4.0,1.76323,0.00024,367.663,0.029,0.0001,0.0022,139.999,45.000,31236.40947,1.76322,367.665,36.000,45.066,45.000,0.00,0.10,-272.73,-272.79,3,516,-3,22.7,19.0,-2.1,22.5,19.4,-2.0,5.73,1.85,-0.4,28.4
2015-06-22 02:10:00,4.0,1.76328,0.00034,367.694,0.025,0.0004,0.0014,140.002,45.001,31235.35074,1.76326,367.693,36.018,45.066,45.000,0.00,0.10,-272.72,-272.79,3,516,-3,22.8,19.0,-2.1,22.6,19.4,-2.0,5.73,1.70,-0.4,28.5
2015-06-22 02:11:00,4.0,1.76330,0.00046,367.699,0.034,0.0006,0.0021,139.997,45.001,31232.54813,1.76331,367.703,36.063,45.066,45.000,0.00,0.10,-272.72,-272.78,4,516,-3,22.8,19.1,-2.0,22.6,19.4,-1.9,5.73,1.86,-0.4,28.5
2015-06-22 02:12:00,4.0,1.76310,0.00034,367.673,0.020,0.0005,0.0020,140.001,45.000,31236.49769,1.76313,367.676,36.066,45.066,45.000,0.00,0.10,-272.73,-272.79,3,515,-3,22.8,19.4,-1.7,22.7,19.7,-1.7,5.73,1.78,-0.4,28.5
2015-06-22 02:13:00,4.0,1.76331,0.00023,367.689,0.023,0.0009,0.0013,140.004,45.001,31236.49802,1.76332,367.690,36.108,45.066,45.000,0.00,0.10,-272.72,-272.79,4,515,-3,22.9,19.5,-1.6,22.7,19.8,-1.6,5.73,1.66,-0.3,28.6
2015-06-22 02:14:00,4.0,1.76343,0.00025,367.701,0.022,-0.0003,0.0017,139.997,45.000,31232.54135,1.76341,367.700,36.125,45.066,45.000,0.00,0.10,-272.73,-272.79,4,515,-3,22.9,19.7,-1.5,22.7,19.9,-1.4,5.73,1.83,-0.3,28.6
2015-06-22 02:15:00,1.0,1.81932,0.02248,382.047,5.651,0.0236,0.0170,140.033,45.000,31711.41468,1.81635,381.699,36.139,45.066,45.000,0.00,0.10,-272.73,-272.78,4,593,-3,22.9,19.4,-1.7,22.7,19.9,-1.5,5.73,1.80,-0.3,28.7
2015-06-22 02:16:00,1.0,1.82434,0.00026,384.196,0.048,0.0143,0.0026,140.005,45.000,31725.12558,1.82460,384.258,36.183,45.066,45.000,0.00,0.10,-272.73,-272.79,6,590,-3,22.9,19.4,-1.7,22.8,19.7,-1.6,5.73,1.62,-0.3,28.7
2015-06-22 02:17:00,1.0,1.82434,0.00027,384.300,0.021,0.0122,0.0019,140.001,45.000,31723.14667,1.82456,384.355,36.189,45.066,45.000,0.00,0.10,-272.72,-272.78,5,589,-3,23.0,19.3,-1.7,22.8,19.7,-1.5,5.73,1.72,-0.3,28.8
2015-06-22 02:18:00,1.0,1.82414,0.00035,384.270,0.026,0.0097,0.0023,139.999,45.000,31725.46944,1.82432,384.314,36.228,45.066,45.000,0.00,0.10,-272.72,-272.78,5,588,-3,23.0,18.9,-1.9,22.9,19.4,-1.7,5.73,1.75,-0.2,28.8
2015-06-22 02:19:00,1.0,1.82427,0.00028,384.291,0.036,0.0087,0.0021,140.001,45.000,31726.91974,1.82442,384.331,36.247,45.066,45.000,0.00,0.10,-272.73,-272.79,6,588,-4,23.0,19.2,-1.7,22.9,19.4,-1.7,5.73,1.63,-0.2,28.8
2015-06-22 02:20:00,1.0,1.82462,0.00031,384.290,0.024,0.0057,0.0021,140.001,45.000,31727.80367,1.82471,384.316,36.250,45.066,45.000,0.00,0.10,-272.73,-272.78,5,587,-4,23.0,19.0,-1.8,22.9,19.5,-1.6,5.73,1.61,-0.2,28.9
2015-06-22 02:21:00,1.0,1.82469,0.00030,384.309,0.031,0.0046,0.0020,139.997,45.000,31728.75827,1.82474,384.330,36.216,45.065,44.999,0.00,0.10,-272.72,-272.78,5,587,-4,23.1,18.7,-2.0,22.9,19.2,-1.8,5.73,1.77,-0.2,29.0
2015-06-22 02:22:00,1.0,1.82464,0.00026,384.328,0.024,0.0033,0.0022,140.000,44.999,31727.56569,1.82474,384.343,36.165,45.065,44.999,0.00,0.10,-272.72,-272.78,6,587,-4,23.1,18.6,-2.0,23.0,19.0,-1.9,5.73,1.61,-0.1,29.1
2015-06-22 02:23:00,1.0,1.82430,0.00030,384.324,0.028,0.0028,0.0021,140.003,44.999,31724.64289,1.82433,384.337,36.071,45.064,44.998,0.00,0.10,-272.72,-272.79,5,586,-4,23.1,18.3,-2.3,23.0,18.8,-2.0,5.73,1.68,-0.2,29.1
2015-06-22 02:24:00,1.0,1.82482,0.00035,384.353,0.022,0.0012,0.0017,139.997,44.998,31718.09780,1.82484,384.357,35.957,45.063,44.997,0.00,0.10,-272.72,-272.79,5,586,-4,23.1,18.2,-2.3,23.0,18.6,-2.2,5.73,1.75,-0.2,29.0
2015-06-22 02:25:00,1.0,1.82462,0.00043,384.352,0.027,0.0017,0.0016,140.000,44.997,31714.97113,1.82469,384.361,35.814,45.063,44.997,0.00,0.10,-272.72,-272.79,4,586,-4,23.1,18.1,-2.5,23.0,18.5,-2.2,5.73,1.61,-0.2,28.9